• în Republica Moldova
  • Lista ţărilor
  • Pe 7 zile
  • Temperatura apei
  • Hartă satelitară
  • Meteo pe hartă
  • Widget-uri
  • user-avatar
    Intrare

    Meteo pe oră la Lezhe

    Astăzi, 25 Iunie, Duminică

    Timp Temperatura Precipitaţii Vânt Presiune Umiditate
    00:00 +23°C° 0 mm 2 m/s 738 mmHg 60%
    01:00 +23°C° 0 mm 2 m/s 737 mmHg 58%
    02:00 +21°C° 0 mm 2 m/s 737 mmHg 59%
    03:00 +21°C° 0 mm 2 m/s 737 mmHg 59%
    04:00 +21°C° 0 mm 2 m/s 737 mmHg 60%
    05:00 +24°C° 0 mm 2 m/s 737 mmHg 56%
    06:00 +27°C° 0 mm 1 m/s 737 mmHg 52%
    07:00 +30°C° 0 mm 1 m/s 737 mmHg 44%
    08:00 +32°C° 0 mm 1 m/s 737 mmHg 38%
    09:00 +34°C° 0 mm 1 m/s 737 mmHg 33%
    10:00 +36°C° 0 mm 1 m/s 737 mmHg 27%
    11:00 +36°C° 0 mm 1 m/s 737 mmHg 27%
    12:00 +37°C° 0 mm 2 m/s 737 mmHg 26%
    13:00 +38°C° 0 mm 3 m/s 736 mmHg 25%
    14:00 +37°C° 0 mm 2 m/s 736 mmHg 28%
    15:00 +36°C° 0 mm 2 m/s 736 mmHg 30%
    16:00 +35°C° 0 mm 2 m/s 735 mmHg 33%
    17:00 +31°C° 0 mm 2 m/s 735 mmHg 44%
    18:00 +28°C° 0 mm 1 m/s 735 mmHg 55%
    19:00 +26°C° 0 mm 1 m/s 735 mmHg 66%
    20:00 +24°C° 0,1 mm 1 m/s 735 mmHg 69%
    21:00 +23°C° 0,1 mm 1 m/s 735 mmHg 72%
    22:00 +22°C° 0,1 mm 1 m/s 736 mmHg 75%
    23:00 +21°C° 0 mm 1 m/s 735 mmHg 75%

    Mâine, 26 Iunie, Luni

    Timp Temperatura Precipitaţii Vânt Presiune Umiditate
    00:00 +20°C° 0 mm 2 m/s 735 mmHg 75%
    01:00 +20°C° 0 mm 2 m/s 735 mmHg 74%
    02:00 +20°C° 0 mm 2 m/s 735 mmHg 75%
    03:00 +20°C° 0 mm 1 m/s 735 mmHg 76%
    04:00 +20°C° 0 mm 1 m/s 735 mmHg 77%
    05:00 +23°C° 0,1 mm 1 m/s 735 mmHg 67%
    06:00 +26°C° 0,1 mm 1 m/s 735 mmHg 57%
    07:00 +27°C° 0,1 mm 0 m/s 735 mmHg 47%
    08:00 +31°C° 0,1 mm 1 m/s 735 mmHg 43%
    09:00 +32°C° 0,1 mm 1 m/s 735 mmHg 39%
    10:00 +35°C° 0,1 mm 2 m/s 735 mmHg 35%
    11:00 +35°C° 0,1 mm 2 m/s 735 mmHg 35%
    12:00 +35°C° 0,1 mm 2 m/s 735 mmHg 36%
    13:00 +36°C° 0,1 mm 3 m/s 735 mmHg 36%
    14:00 +35°C° 0,2 mm 3 m/s 735 mmHg 39%
    15:00 +34°C° 0,2 mm 2 m/s 735 mmHg 42%
    16:00 +34°C° 0,2 mm 2 m/s 734 mmHg 45%
    17:00 +30°C° 0,1 mm 1 m/s 735 mmHg 55%
    18:00 +28°C° 0,1 mm 1 m/s 735 mmHg 65%
    19:00 +25°C° 0,1 mm 1 m/s 735 mmHg 75%
    20:00 +24°C° 0,1 mm 1 m/s 735 mmHg 78%
    21:00 +20°C° 0,1 mm 0 m/s 735 mmHg 82%
    22:00 +19°C° 0,1 mm 0 m/s 735 mmHg 85%
    23:00 +19°C° 0 mm 0 m/s 735 mmHg 85%

    Poimâine, 27 Iunie, Marţi

    Timp Temperatura Precipitaţii Vânt Presiune Umiditate
    00:00 +18°C° 0 mm 0 m/s 735 mmHg 85%
    01:00 +20°C° 0 mm 1 m/s 735 mmHg 85%
    02:00 +18°C° 0 mm 0 m/s 735 mmHg 86%
    03:00 +17°C° 0 mm 0 m/s 735 mmHg 87%
    04:00 +17°C° 0 mm 0 m/s 735 mmHg 88%
    05:00 +20°C° 0 mm 0 m/s 735 mmHg 78%
    06:00 +23°C° 0 mm 0 m/s 735 mmHg 67%
    07:00 +28°C° 0 mm 1 m/s 736 mmHg 57%
    08:00 +30°C° 0 mm 1 m/s 736 mmHg 50%
    09:00 +32°C° 0 mm 1 m/s 736 mmHg 44%
    10:00 +34°C° 0 mm 1 m/s 736 mmHg 38%
    11:00 +35°C° 0 mm 2 m/s 735 mmHg 35%
    12:00 +36°C° 0 mm 2 m/s 735 mmHg 33%
    13:00 +36°C° 0 mm 3 m/s 735 mmHg 31%
    14:00 +35°C° 0 mm 3 m/s 735 mmHg 33%
    15:00 +35°C° 0 mm 2 m/s 734 mmHg 34%
    16:00 +34°C° 0 mm 2 m/s 734 mmHg 36%
    17:00 +30°C° 0 mm 2 m/s 734 mmHg 48%
    18:00 +27°C° 0 mm 1 m/s 734 mmHg 60%
    19:00 +24°C° 0 mm 1 m/s 734 mmHg 72%
    20:00 +24°C° 0 mm 1 m/s 734 mmHg 72%
    21:00 +23°C° 0 mm 1 m/s 734 mmHg 73%
    22:00 +21°C° 0 mm 2 m/s 734 mmHg 74%
    23:00 +20°C° 0 mm 2 m/s 734 mmHg 73%

    28 Iunie, Miercuri

    Timp Temperatura Precipitaţii Vânt Presiune Umiditate
    00:00 +20°C° 0 mm 2 m/s 734 mmHg 73%
    01:00 +20°C° 0 mm 2 m/s 734 mmHg 72%
    02:00 +20°C° 0 mm 2 m/s 734 mmHg 70%
    03:00 +20°C° 0 mm 2 m/s 734 mmHg 68%
    04:00 +20°C° 0 mm 2 m/s 734 mmHg 67%
    05:00 +24°C° 0 mm 2 m/s 734 mmHg 60%
    06:00 +27°C° 0 mm 2 m/s 734 mmHg 53%
    07:00 +30°C° 0 mm 1 m/s 735 mmHg 46%
    08:00 +31°C° 0 mm 2 m/s 735 mmHg 42%
    09:00 +33°C° 0 mm 3 m/s 735 mmHg 38%
    10:00 +34°C° 0 mm 3 m/s 735 mmHg 34%
    11:00 +35°C° 0 mm 3 m/s 734 mmHg 33%
    12:00 +35°C° 0 mm 3 m/s 734 mmHg 32%
    13:00 +36°C° 0 mm 3 m/s 734 mmHg 31%
    14:00 +35°C° 0 mm 3 m/s 734 mmHg 33%
    15:00 +35°C° 0 mm 3 m/s 734 mmHg 34%
    16:00 +35°C° 0 mm 2 m/s 734 mmHg 36%
    17:00 +31°C° 0 mm 2 m/s 734 mmHg 47%
    18:00 +28°C° 0 mm 2 m/s 734 mmHg 58%
    19:00 +26°C° 0 mm 1 m/s 734 mmHg 69%
    20:00 +25°C° 0 mm 2 m/s 734 mmHg 69%
    21:00 +24°C° 0 mm 2 m/s 735 mmHg 70%
    22:00 +24°C° 0 mm 2 m/s 735 mmHg 70%
    23:00 +24°C° 0 mm 2 m/s 735 mmHg 68%

    29 Iunie, Joi

    Timp Temperatura Precipitaţii Vânt Presiune Umiditate
    00:00 +23°C° 0 mm 1 m/s 735 mmHg 65%
    01:00 +23°C° 0 mm 1 m/s 734 mmHg 63%
    02:00 +23°C° 0 mm 2 m/s 734 mmHg 63%
    03:00 +23°C° 0 mm 2 m/s 734 mmHg 63%
    04:00 +23°C° 0 mm 2 m/s 734 mmHg 63%
    05:00 +25°C° 0 mm 2 m/s 734 mmHg 57%
    06:00 +28°C° 0 mm 2 m/s 734 mmHg 50%
    07:00 +31°C° 0 mm 2 m/s 735 mmHg 43%
    08:00 +34°C° 0 mm 2 m/s 735 mmHg 38%
    09:00 +36°C° 0 mm 3 m/s 735 mmHg 32%
    10:00 +38°C° 0 mm 4 m/s 735 mmHg 27%
    11:00 +39°C° 0 mm 5 m/s 734 mmHg 27%
    12:00 +39°C° 0 mm 5 m/s 734 mmHg 27%
    13:00 +39°C° 0 mm 6 m/s 734 mmHg 27%
    14:00 +38°C° 0 mm 6 m/s 734 mmHg 29%
    15:00 +37°C° 0 mm 5 m/s 734 mmHg 30%
    16:00 +36°C° 0 mm 5 m/s 734 mmHg 32%
    17:00 +33°C° 0 mm 4 m/s 734 mmHg 41%
    18:00 +30°C° 0 mm 3 m/s 734 mmHg 51%
    19:00 +27°C° 0 mm 3 m/s 734 mmHg 61%
    20:00 +26°C° 0 mm 3 m/s 735 mmHg 61%
    21:00 +25°C° 0 mm 2 m/s 735 mmHg 61%
    22:00 +23°C° 0 mm 2 m/s 736 mmHg 62%
    23:00 +23°C° 0 mm 2 m/s 736 mmHg 63%

    30 Iunie, Vineri

    Timp Temperatura Precipitaţii Vânt Presiune Umiditate
    00:00 +23°C° 0 mm 2 m/s 736 mmHg 63%
    01:00 +21°C° 0 mm 2 m/s 736 mmHg 64%
    02:00 +22°C° 0 mm 1 m/s 736 mmHg 64%
    03:00 +22°C° 0 mm 1 m/s 736 mmHg 64%
    04:00 +22°C° 0 mm 1 m/s 736 mmHg 64%
    05:00 +25°C° 0 mm 1 m/s 737 mmHg 56%
    06:00 +28°C° 0 mm 1 m/s 737 mmHg 49%
    07:00 +31°C° 0 mm 1 m/s 737 mmHg 42%
    08:00 +33°C° 0 mm 1 m/s 737 mmHg 37%
    09:00 +35°C° 0 mm 1 m/s 737 mmHg 32%
    10:00 +37°C° 0 mm 1 m/s 737 mmHg 26%
    11:00 +39°C° 0 mm 2 m/s 737 mmHg 24%
    12:00 +40°C° 0 mm 2 m/s 737 mmHg 23%
    13:00 +40°C° 0 mm 3 m/s 736 mmHg 21%
    14:00 +40°C° 0 mm 3 m/s 736 mmHg 23%
    15:00 +39°C° 0 mm 2 m/s 736 mmHg 24%
    16:00 +38°C° 0 mm 2 m/s 736 mmHg 26%
    17:00 +35°C° 0 mm 2 m/s 735 mmHg 38%
    18:00 +30°C° 0 mm 1 m/s 735 mmHg 49%
    19:00 +27°C° 0 mm 1 m/s 735 mmHg 60%
    20:00 +26°C° 0 mm 1 m/s 735 mmHg 62%
    21:00 +25°C° 0 mm 1 m/s 735 mmHg 63%
    22:00 +24°C° 0 mm 1 m/s 735 mmHg 64%
    23:00 +24°C° 0 mm 1 m/s 735 mmHg 63%
    Arată mai mult